SDM125 UIAA-UHHH

Flight info

Callsign SDM125
Flight time N/A
Altitude 35000
Route PIGUK1F PIGUK W172 KU P873 NIKTO G229 GU N992 DIDEK DIDEK6F
Aircraft B738/M-SDE2E3FGHIRWXY/LB1

Departure

Time 2026-05-06 08:42
Airport Chita-Kadala International Airport (UIAA)

Arrival

Time N/A
Airport Khabarovsk Novy Airport (UHHH)
Time Latitude Longitude Altitude Speed Heading
2026-05-06 08:02 52.02113 113.30751 2237 ft 0 kts 288°
2026-05-06 08:33 52.02127 113.30724 2237 ft 4 kts 323°
2026-05-06 08:33 52.02151 113.30713 2237 ft 4 kts 356°
2026-05-06 08:33 52.02178 113.30720 2237 ft 4 kts 14°
2026-05-06 08:34 52.02184 113.30723 2237 ft 1 kts 16°
2026-05-06 08:36 52.02210 113.30733 2237 ft 7 kts 14°
2026-05-06 08:37 52.02233 113.30759 2237 ft 2 kts 52°
2026-05-06 08:37 52.02230 113.30824 2237 ft 10 kts 110°
2026-05-06 08:37 52.02264 113.30907 2237 ft 11 kts 17°
2026-05-06 08:37 52.02333 113.30955 2235 ft 13 kts 48°
2026-05-06 08:38 52.02332 113.31122 2232 ft 17 kts 101°
2026-05-06 08:38 52.02304 113.31358 2224 ft 24 kts 101°
2026-05-06 08:38 52.02272 113.31625 2219 ft 23 kts 101°
2026-05-06 08:38 52.02246 113.31839 2215 ft 8 kts 101°
2026-05-06 08:39 52.02241 113.31884 2216 ft 0 kts 101°
2026-05-06 08:39 52.02238 113.31905 2216 ft 6 kts 101°
2026-05-06 08:39 52.02228 113.32027 2215 ft 16 kts 90°
2026-05-06 08:39 52.02247 113.32228 2214 ft 18 kts 81°
2026-05-06 08:40 52.02269 113.32422 2211 ft 15 kts 66°
2026-05-06 08:40 52.02346 113.32484 2211 ft 12 kts
2026-05-06 08:40 52.02398 113.32398 2210 ft 12 kts 281°
2026-05-06 08:40 52.02403 113.32356 2211 ft 0 kts 281°
2026-05-06 08:41 52.02411 113.32290 2213 ft 30 kts 281°
2026-05-06 08:41 52.02502 113.31522 2227 ft 106 kts 280°
2026-05-06 08:42 52.02690 113.29992 2265 ft 168 kts 282°
2026-05-06 08:42 52.02892 113.28053 3038 ft 171 kts 273°
2026-05-06 08:42 52.02749 113.26090 4025 ft 179 kts 269°
2026-05-06 08:42 52.03017 113.24255 4937 ft 170 kts 308°
2026-05-06 08:43 52.03844 113.22747 5330 ft 190 kts 317°
2026-05-06 08:43 52.05092 113.21890 5519 ft 210 kts 359°
2026-05-06 08:43 52.06507 113.22787 5773 ft 236 kts 39°
2026-05-06 08:43 52.07369 113.25127 6230 ft 249 kts 66°
2026-05-06 08:44 52.07935 113.27807 6765 ft 252 kts 68°
2026-05-06 08:44 52.08491 113.30527 7336 ft 254 kts 67°
2026-05-06 08:44 52.09058 113.33251 7877 ft 256 kts 67°
2026-05-06 08:44 52.09640 113.35982 8442 ft 257 kts 66°
2026-05-06 08:45 52.10243 113.38749 8940 ft 264 kts 66°
2026-05-06 08:45 52.10889 113.41662 9226 ft 280 kts 66°
2026-05-06 08:45 52.11563 113.44679 9935 ft 285 kts 66°
2026-05-06 08:45 52.12245 113.47721 10610 ft 292 kts 66°
2026-05-06 08:46 52.12976 113.50942 10806 ft 315 kts 66°
2026-05-06 08:46 52.13763 113.54409 11001 ft 337 kts 66°
2026-05-06 08:46 52.14600 113.58101 11187 ft 358 kts 67°
2026-05-06 08:46 52.15476 113.61978 11566 ft 370 kts 67°
2026-05-06 08:47 52.16367 113.65936 12260 ft 373 kts 67°
2026-05-06 08:47 52.17262 113.69913 13076 ft 373 kts 67°
2026-05-06 08:47 52.18157 113.73884 13827 ft 375 kts 67°
2026-05-06 08:47 52.19056 113.77884 14470 ft 377 kts 67°
2026-05-06 08:48 52.19962 113.81915 15021 ft 381 kts 67°
2026-05-06 08:48 52.20866 113.85940 15566 ft 385 kts 67°
2026-05-06 08:48 52.21791 113.90063 16188 ft 387 kts 66°
2026-05-06 08:48 52.22716 113.94198 16811 ft 390 kts 66°
2026-05-06 08:49 52.23648 113.98370 17389 ft 393 kts 66°
2026-05-06 08:49 52.24586 114.02576 17949 ft 396 kts 66°
2026-05-06 08:49 52.25529 114.06817 18490 ft 399 kts 66°
2026-05-06 08:49 52.26511 114.11062 18983 ft 400 kts 63°
2026-05-06 08:50 52.27647 114.15216 19488 ft 401 kts 61°
2026-05-06 08:50 52.28859 114.19334 19971 ft 403 kts 60°
2026-05-06 08:50 52.30096 114.23465 20453 ft 406 kts 60°
2026-05-06 08:50 52.31332 114.27619 20917 ft 408 kts 60°
2026-05-06 08:51 52.32566 114.31814 21371 ft 411 kts 60°
2026-05-06 08:51 52.33796 114.36041 21812 ft 413 kts 61°
2026-05-06 08:51 52.35026 114.40303 22243 ft 416 kts 61°
2026-05-06 08:51 52.36258 114.44597 22654 ft 418 kts 61°
2026-05-06 08:52 52.37496 114.48927 23050 ft 421 kts 61°
2026-05-06 08:52 52.38739 114.53284 23452 ft 424 kts 61°
2026-05-06 08:52 52.39987 114.57667 23813 ft 426 kts 61°
2026-05-06 08:52 52.41244 114.62088 24140 ft 428 kts 61°
2026-05-06 08:53 52.42503 114.66523 24447 ft 431 kts 61°
2026-05-06 08:53 52.43764 114.70978 24774 ft 432 kts 61°
2026-05-06 08:53 52.45015 114.75403 25081 ft 435 kts 61°
2026-05-06 08:53 52.46287 114.79906 25384 ft 436 kts 61°
2026-05-06 08:54 52.47563 114.84436 25676 ft 438 kts 61°
2026-05-06 08:54 52.48844 114.88990 25919 ft 441 kts 62°
2026-05-06 08:54 52.50132 114.93569 26180 ft 443 kts 62°
2026-05-06 08:54 52.51427 114.98176 26452 ft 445 kts 62°
2026-05-06 08:55 52.52724 115.02795 26735 ft 447 kts 62°
2026-05-06 08:55 52.54023 115.07432 27043 ft 447 kts 62°
2026-05-06 08:55 52.55319 115.12069 27446 ft 446 kts 62°
2026-05-06 08:55 52.56608 115.16692 27857 ft 444 kts 62°
2026-05-06 08:56 52.57890 115.21301 28185 ft 444 kts 62°
2026-05-06 08:56 52.59175 115.25924 28506 ft 444 kts 62°
2026-05-06 08:56 52.60456 115.30543 28873 ft 444 kts 62°
2026-05-06 08:56 52.61734 115.35161 29277 ft 443 kts 62°
2026-05-06 08:57 52.63010 115.39782 29656 ft 443 kts 62°
2026-05-06 08:57 52.64279 115.44388 30037 ft 442 kts 62°
2026-05-06 08:57 52.65547 115.48997 30349 ft 441 kts 62°
2026-05-06 08:57 52.66813 115.53608 30611 ft 442 kts 62°
2026-05-06 08:58 52.68080 115.58232 30849 ft 443 kts 62°
2026-05-06 08:58 52.69347 115.62864 31115 ft 443 kts 62°
2026-05-06 08:58 52.70594 115.67434 31407 ft 443 kts 62°
2026-05-06 08:58 52.71853 115.72060 31665 ft 443 kts 62°
2026-05-06 08:59 52.73114 115.76697 31906 ft 443 kts 62°
2026-05-06 08:59 52.74374 115.81342 32175 ft 443 kts 62°
2026-05-06 08:59 52.75631 115.85985 32448 ft 443 kts 62°
2026-05-06 08:59 52.76884 115.90626 32703 ft 443 kts 62°
2026-05-06 09:00 52.78138 115.95276 32942 ft 443 kts 62°
2026-05-06 09:00 52.79391 115.99933 33195 ft 443 kts 62°
2026-05-06 09:00 52.80641 116.04587 33447 ft 443 kts 62°
2026-05-06 09:00 52.81890 116.09250 33709 ft 443 kts 62°
2026-05-06 09:01 52.83136 116.13909 33925 ft 443 kts 63°
2026-05-06 09:01 52.84384 116.18585 34130 ft 444 kts 63°
2026-05-06 09:01 52.85631 116.23265 34266 ft 445 kts 63°
2026-05-06 09:01 52.86879 116.27960 34424 ft 446 kts 63°
2026-05-06 09:02 52.88129 116.32671 34601 ft 447 kts 63°
2026-05-06 09:02 52.89378 116.37391 34749 ft 448 kts 63°
2026-05-06 09:02 52.90627 116.42122 34893 ft 449 kts 63°
2026-05-06 09:02 52.91876 116.46862 35019 ft 450 kts 63°
2026-05-06 09:03 52.93126 116.51613 35048 ft 450 kts 63°
2026-05-06 09:03 52.95622 116.61133 35051 ft 450 kts 63°
2026-05-06 09:04 52.98094 116.70601 35049 ft 450 kts 63°
2026-05-06 09:04 53.00571 116.80126 35050 ft 449 kts 63°
2026-05-06 09:05 53.03041 116.89661 35039 ft 449 kts 64°
2026-05-06 09:05 53.05448 116.99249 35037 ft 449 kts 64°
2026-05-06 09:06 53.07806 117.08878 35037 ft 449 kts 65°
2026-05-06 09:06 53.10160 117.18518 35034 ft 449 kts 65°
2026-05-06 09:07 53.12512 117.28159 35039 ft 450 kts 65°
2026-05-06 09:07 53.14860 117.37810 35036 ft 450 kts 65°
2026-05-06 09:08 53.17204 117.47481 35044 ft 450 kts 65°
2026-05-06 09:08 53.19538 117.57162 35047 ft 450 kts 65°
2026-05-06 09:09 53.21844 117.66766 35054 ft 450 kts 65°
2026-05-06 09:09 53.24165 117.76476 35053 ft 450 kts 65°
2026-05-06 09:10 53.26476 117.86185 35054 ft 449 kts 65°
2026-05-06 09:10 53.28774 117.95889 35048 ft 449 kts 65°
2026-05-06 09:11 53.31068 118.05613 35054 ft 449 kts 65°
2026-05-06 09:11 53.33352 118.15342 35046 ft 449 kts 66°
2026-05-06 09:12 53.35628 118.25085 35044 ft 449 kts 66°
2026-05-06 09:12 53.37896 118.34831 35034 ft 449 kts 66°
2026-05-06 09:13 53.40157 118.44594 35036 ft 450 kts 66°
2026-05-06 09:13 53.42401 118.54329 35026 ft 450 kts 66°
2026-05-06 09:14 53.44652 118.64141 35026 ft 451 kts 66°
2026-05-06 09:14 53.46897 118.73968 35015 ft 451 kts 66°
2026-05-06 09:15 53.49138 118.83827 35009 ft 452 kts 66°
2026-05-06 09:15 53.51372 118.93701 35014 ft 452 kts 66°
2026-05-06 09:16 53.53596 119.03580 35009 ft 452 kts 67°
2026-05-06 09:16 53.55798 119.13403 35004 ft 451 kts 67°
2026-05-06 09:17 53.58001 119.23277 34996 ft 451 kts 67°
2026-05-06 09:17 53.60196 119.33166 35008 ft 450 kts 67°
2026-05-06 09:18 53.62380 119.43048 35005 ft 450 kts 67°
2026-05-06 09:18 53.64553 119.52928 35004 ft 450 kts 67°
2026-05-06 09:19 53.66720 119.62822 34999 ft 450 kts 68°
2026-05-06 09:19 53.68591 119.72906 34994 ft 453 kts 78°
2026-05-06 09:20 53.69137 119.83520 35002 ft 455 kts 84°
2026-05-06 09:20 53.69507 119.94189 35001 ft 455 kts 84°
2026-05-06 09:21 53.69899 120.04870 35001 ft 456 kts 84°
2026-05-06 09:21 53.70312 120.15542 35009 ft 456 kts 84°
2026-05-06 09:22 53.70726 120.26247 35003 ft 457 kts 84°
2026-05-06 09:22 53.71131 120.36963 35000 ft 458 kts 84°
2026-05-06 09:23 53.71523 120.47625 35000 ft 458 kts 84°
2026-05-06 09:23 53.71847 120.56632 34994 ft 459 kts 84°
2026-05-06 09:24 53.72225 120.67389 34991 ft 459 kts 84°
2026-05-06 09:24 53.72593 120.78159 34988 ft 459 kts 84°
2026-05-06 09:25 53.72951 120.88930 34990 ft 459 kts 84°
2026-05-06 09:25 53.73301 120.99709 34991 ft 460 kts 84°
2026-05-06 09:26 53.73638 121.10418 34980 ft 460 kts 85°
2026-05-06 09:26 53.73968 121.21206 34976 ft 460 kts 85°
2026-05-06 09:27 53.74288 121.32009 34983 ft 460 kts 85°
2026-05-06 09:27 53.74599 121.42801 34975 ft 460 kts 85°
2026-05-06 09:28 53.74900 121.53599 34975 ft 460 kts 85°
2026-05-06 09:28 53.75190 121.64334 34971 ft 460 kts 85°
2026-05-06 09:29 53.75472 121.75143 34969 ft 460 kts 85°
2026-05-06 09:29 53.75745 121.85956 34972 ft 461 kts 85°
2026-05-06 09:30 53.76008 121.96790 34964 ft 462 kts 85°
2026-05-06 09:30 53.76263 122.07644 34961 ft 462 kts 86°
2026-05-06 09:31 53.76514 122.18512 34959 ft 463 kts 85°
2026-05-06 09:31 53.76785 122.29383 34962 ft 463 kts 85°
2026-05-06 09:32 53.77053 122.40265 34951 ft 464 kts 85°
2026-05-06 09:32 53.77306 122.51093 34953 ft 464 kts 86°
2026-05-06 09:33 53.77549 122.61998 34951 ft 464 kts 86°
2026-05-06 09:33 53.77781 122.72905 34942 ft 464 kts 86°
2026-05-06 09:34 53.78004 122.83820 34943 ft 464 kts 86°
2026-05-06 09:34 53.78217 122.94737 34943 ft 464 kts 86°
2026-05-06 09:35 53.78421 123.05662 34939 ft 465 kts 86°
2026-05-06 09:35 53.78614 123.16591 34932 ft 465 kts 86°
2026-05-06 09:36 53.78798 123.27510 34927 ft 465 kts 86°
2026-05-06 09:36 53.78973 123.38439 34924 ft 465 kts 86°
2026-05-06 09:37 53.78866 123.49386 34912 ft 468 kts 97°
2026-05-06 09:37 53.77539 123.60084 34920 ft 469 kts 101°
2026-05-06 09:38 53.76076 123.70827 34923 ft 469 kts 101°
2026-05-06 09:38 53.74641 123.81591 34913 ft 469 kts 101°
2026-05-06 09:39 53.73229 123.92353 34912 ft 470 kts 101°
2026-05-06 09:39 53.71813 124.03137 34917 ft 470 kts 101°
2026-05-06 09:40 53.70389 124.13908 34908 ft 471 kts 101°
2026-05-06 09:40 53.68236 124.30025 34901 ft 471 kts 101°
2026-05-06 09:41 53.66779 124.40820 34902 ft 472 kts 101°
2026-05-06 09:41 53.65312 124.51619 34898 ft 472 kts 101°
2026-05-06 09:42 53.63834 124.62414 34893 ft 473 kts 101°
2026-05-06 09:42 53.62345 124.73208 34895 ft 473 kts 102°
2026-05-06 09:43 53.60846 124.84012 34886 ft 474 kts 102°
2026-05-06 09:43 53.59336 124.94811 34884 ft 474 kts 102°
2026-05-06 09:44 53.57813 125.05609 34880 ft 474 kts 102°
2026-05-06 09:44 53.56291 125.16334 34876 ft 475 kts 102°
2026-05-06 09:45 53.54747 125.27144 34875 ft 475 kts 102°
2026-05-06 09:45 53.53195 125.37933 34871 ft 475 kts 102°
2026-05-06 09:46 53.51630 125.48736 34867 ft 475 kts 102°
2026-05-06 09:46 53.50057 125.59520 34868 ft 475 kts 102°
2026-05-06 09:47 53.48475 125.70308 34868 ft 476 kts 103°
2026-05-06 09:47 53.46277 125.80762 34863 ft 477 kts 117°
2026-05-06 09:48 53.42477 125.89899 34868 ft 478 kts 128°
2026-05-06 09:48 53.38304 125.98592 34862 ft 479 kts 128°
2026-05-06 09:49 53.34139 126.07311 34857 ft 479 kts 128°
2026-05-06 09:49 53.30031 126.15997 34859 ft 480 kts 128°
2026-05-06 09:50 53.25897 126.24759 34856 ft 480 kts 128°
2026-05-06 09:50 53.21756 126.33503 34856 ft 480 kts 128°
2026-05-06 09:51 53.17596 126.42251 34850 ft 481 kts 128°
2026-05-06 09:51 53.13435 126.50966 34851 ft 481 kts 128°
2026-05-06 09:52 53.09264 126.59675 34849 ft 481 kts 129°
2026-05-06 09:52 53.05086 126.68367 34847 ft 481 kts 129°
2026-05-06 09:53 53.00899 126.77047 34847 ft 481 kts 129°
2026-05-06 09:53 52.96707 126.85710 34840 ft 481 kts 129°
2026-05-06 09:54 52.92501 126.94371 34839 ft 481 kts 129°
2026-05-06 09:54 52.88297 127.03002 34836 ft 482 kts 129°
2026-05-06 09:55 52.84112 127.11567 34837 ft 481 kts 129°
2026-05-06 09:55 52.79898 127.20163 34833 ft 481 kts 129°
2026-05-06 09:56 52.75677 127.28749 34831 ft 481 kts 129°
2026-05-06 09:56 52.71453 127.37319 34826 ft 481 kts 129°
2026-05-06 09:57 52.67224 127.45862 34825 ft 481 kts 130°
2026-05-06 09:57 52.62969 127.54354 34823 ft 481 kts 130°
2026-05-06 09:58 52.58696 127.62833 34820 ft 481 kts 130°
2026-05-06 09:58 52.54421 127.71296 34824 ft 481 kts 130°
2026-05-06 09:59 52.50148 127.79736 34818 ft 481 kts 130°
2026-05-06 09:59 52.45865 127.88169 34820 ft 481 kts 130°
2026-05-06 10:00 52.41580 127.96578 34816 ft 481 kts 130°
2026-05-06 10:00 52.37288 128.04974 34817 ft 481 kts 130°
2026-05-06 10:01 52.32983 128.13365 34815 ft 481 kts 130°
2026-05-06 10:01 52.28703 128.21680 34813 ft 481 kts 131°
2026-05-06 10:02 52.24384 128.30043 34810 ft 482 kts 131°
2026-05-06 10:02 52.20058 128.38393 34806 ft 482 kts 131°
2026-05-06 10:03 52.15712 128.46755 34808 ft 484 kts 131°
2026-05-06 10:03 52.11349 128.55119 34800 ft 485 kts 131°
2026-05-06 10:04 52.06969 128.63489 34807 ft 486 kts 131°
2026-05-06 10:04 52.02587 128.71836 34800 ft 486 kts 131°
2026-05-06 10:05 51.98189 128.80184 34800 ft 487 kts 132°
2026-05-06 10:05 51.93782 128.88523 34800 ft 487 kts 132°
2026-05-06 10:06 51.89365 128.96854 34802 ft 487 kts 132°
2026-05-06 10:06 51.84967 129.05120 34803 ft 487 kts 132°
2026-05-06 10:07 51.80534 129.13426 34801 ft 488 kts 132°
2026-05-06 10:07 51.76093 129.21718 34802 ft 488 kts 133°
2026-05-06 10:08 51.71646 129.29997 34801 ft 488 kts 133°
2026-05-06 10:08 51.67188 129.38267 34801 ft 489 kts 133°
2026-05-06 10:09 51.62723 129.46523 34801 ft 489 kts 133°
2026-05-06 10:09 51.58244 129.54779 34803 ft 489 kts 133°
2026-05-06 10:10 51.53787 129.62968 34802 ft 490 kts 133°
2026-05-06 10:10 51.50025 129.69859 34801 ft 490 kts 133°
2026-05-06 10:11 51.45520 129.78088 34799 ft 490 kts 133°
2026-05-06 10:11 51.41008 129.86302 34799 ft 491 kts 134°
2026-05-06 10:12 51.36520 129.94451 34802 ft 491 kts 134°
2026-05-06 10:12 51.31985 130.02633 34802 ft 492 kts 134°
2026-05-06 10:13 51.27369 130.10715 34805 ft 492 kts 135°
2026-05-06 10:13 51.22725 130.18765 34804 ft 492 kts 135°
2026-05-06 10:14 51.18084 130.26814 34801 ft 493 kts 135°
2026-05-06 10:14 51.13443 130.34857 34803 ft 493 kts 135°
2026-05-06 10:15 51.08792 130.42896 34800 ft 494 kts 135°
2026-05-06 10:15 51.04157 130.50881 34802 ft 495 kts 135°
2026-05-06 10:16 50.99481 130.58910 34805 ft 495 kts 136°
2026-05-06 10:16 50.94793 130.66934 34803 ft 496 kts 136°
2026-05-06 10:17 50.90092 130.74955 34800 ft 496 kts 136°
2026-05-06 10:17 50.85384 130.82966 34800 ft 497 kts 136°
2026-05-06 10:18 50.80663 130.90968 34797 ft 498 kts 136°
2026-05-06 10:18 50.75931 130.98956 34792 ft 498 kts 136°
2026-05-06 10:19 50.71188 131.06939 34791 ft 498 kts 136°
2026-05-06 10:19 50.66442 131.14907 34785 ft 499 kts 137°
2026-05-06 10:20 50.61682 131.22873 34784 ft 499 kts 137°
2026-05-06 10:20 50.56946 131.30774 34787 ft 499 kts 137°
2026-05-06 10:21 50.53751 131.36091 34782 ft 500 kts 137°
2026-05-06 10:21 50.48164 131.45361 34789 ft 500 kts 137°
2026-05-06 10:22 50.42596 131.54566 34780 ft 501 kts 137°
2026-05-06 10:22 50.37786 131.62490 34783 ft 501 kts 138°
2026-05-06 10:23 50.32972 131.70397 34782 ft 502 kts 138°
2026-05-06 10:23 50.28148 131.78296 34776 ft 503 kts 138°
2026-05-06 10:24 50.23307 131.86200 34779 ft 503 kts 138°
2026-05-06 10:24 50.18458 131.94090 34776 ft 504 kts 139°
2026-05-06 10:25 50.13624 132.01915 34776 ft 504 kts 139°
2026-05-06 10:25 50.09537 132.08514 34767 ft 504 kts 139°